Time,TemperatureF,DewpointF,PressureIn,WindDirection,WindDirectionDegrees,WindSpeedMPH,WindSpeedGustMPH,Humidity,HourlyPrecipIn,Conditions,Clouds,dailyrainin,SoftwareType,DateUTC
2013-05-25 00:08:00,54.1,39.7,29.89,SSW,202,2.7,-999.0,58,-99.99,,,0.00,Acu-Link.com,2013-05-25 04:08:00,
2013-05-25 00:23:00,53.6,39.2,29.90,SSE,157,2.2,-999.0,58,-99.99,,,0.00,Acu-Link.com,2013-05-25 04:23:00,
2013-05-25 00:39:00,53.1,39.2,29.91,East,90,0.0,-999.0,59,-99.99,,,0.00,Acu-Link.com,2013-05-25 04:39:00,
2013-05-25 00:54:00,52.9,39.0,29.91,ESE,112,0.0,-999.0,59,-99.99,,,0.00,Acu-Link.com,2013-05-25 04:54:00,
2013-05-25 01:09:00,52.7,39.2,29.91,East,90,1.7,-999.0,60,-99.99,,,0.00,Acu-Link.com,2013-05-25 05:09:00,
2013-05-25 01:24:00,52.3,39.3,29.90,SSW,202,0.0,-999.0,61,-99.99,,,0.00,Acu-Link.com,2013-05-25 05:24:00,
2013-05-25 01:40:00,51.8,40.8,29.91,SSW,202,0.0,-999.0,66,-99.99,,,0.00,Acu-Link.com,2013-05-25 05:40:00,
2013-05-25 01:55:00,51.1,40.1,29.91,SSE,157,1.7,-999.0,66,-99.99,,,0.00,Acu-Link.com,2013-05-25 05:55:00,
2013-05-25 02:10:00,50.7,40.5,29.91,SW,225,0.0,-999.0,68,-99.99,,,0.00,Acu-Link.com,2013-05-25 06:10:00,
2013-05-25 02:26:00,50.0,40.2,29.91,SSW,202,0.0,-999.0,69,-99.99,,,0.00,Acu-Link.com,2013-05-25 06:26:00,
2013-05-25 02:41:00,50.0,39.5,29.92,South,180,2.2,-999.0,67,-99.99,,,0.00,Acu-Link.com,2013-05-25 06:41:00,
2013-05-25 02:56:00,50.0,38.7,29.91,SSW,202,0.0,-999.0,65,-99.99,,,0.00,Acu-Link.com,2013-05-25 06:56:00,
2013-05-25 03:11:00,49.8,38.1,29.91,ESE,112,1.7,-999.0,64,-99.99,,,0.00,Acu-Link.com,2013-05-25 07:11:00,
2013-05-25 03:27:00,49.8,38.1,29.91,East,90,0.0,-999.0,64,-99.99,,,0.00,Acu-Link.com,2013-05-25 07:27:00,
2013-05-25 03:42:00,49.8,37.7,29.91,North,0,0.0,-999.0,63,-99.99,,,0.00,Acu-Link.com,2013-05-25 07:42:00,
2013-05-25 03:57:00,49.8,38.1,29.91,ENE,67,2.7,-999.0,64,-99.99,,,0.00,Acu-Link.com,2013-05-25 07:57:00,
2013-05-25 04:13:00,49.6,37.9,29.91,SSW,202,3.2,-999.0,64,-99.99,,,0.00,Acu-Link.com,2013-05-25 08:13:00,
2013-05-25 04:28:00,49.5,37.8,29.92,East,90,1.1,-999.0,64,-99.99,,,0.00,Acu-Link.com,2013-05-25 08:28:00,
2013-05-25 04:43:00,49.1,38.6,29.91,SW,225,2.2,-999.0,67,-99.99,,,0.00,Acu-Link.com,2013-05-25 08:43:00,
2013-05-25 04:58:00,48.9,37.7,29.91,South,180,1.7,-999.0,65,-99.99,,,0.00,Acu-Link.com,2013-05-25 08:58:00,
2013-05-25 05:14:00,49.1,38.6,29.91,SSW,202,3.2,-999.0,67,-99.99,,,0.00,Acu-Link.com,2013-05-25 09:14:00,
2013-05-25 05:29:00,48.9,38.8,29.92,SSW,202,3.7,-999.0,68,-99.99,,,0.00,Acu-Link.com,2013-05-25 09:29:00,
2013-05-25 05:44:00,48.7,37.9,29.92,NW,315,2.7,-999.0,66,-99.99,,,0.00,Acu-Link.com,2013-05-25 09:44:00,
2013-05-25 05:59:00,48.6,37.8,29.93,NW,315,2.7,-999.0,66,-99.99,,,0.00,Acu-Link.com,2013-05-25 09:59:00,
2013-05-25 06:14:00,48.6,37.8,29.94,West,270,1.7,-999.0,66,-99.99,,,0.00,Acu-Link.com,2013-05-25 10:14:00,
2013-05-25 06:30:00,48.2,39.2,29.94,SSW,202,2.2,-999.0,71,-99.99,,,0.00,Acu-Link.com,2013-05-25 10:30:00,
2013-05-25 06:45:00,47.7,38.0,29.95,South,180,3.2,-999.0,69,-99.99,,,0.00,Acu-Link.com,2013-05-25 10:45:00,
2013-05-25 07:00:00,48.6,37.4,29.96,SSW,202,3.2,-999.0,65,-99.99,,,0.00,Acu-Link.com,2013-05-25 11:00:00,
2013-05-25 07:16:00,49.5,38.6,29.96,SW,225,3.2,-999.0,66,-99.99,,,0.00,Acu-Link.com,2013-05-25 11:16:00,
2013-05-25 07:31:00,50.0,37.1,29.96,NW,315,3.7,-999.0,61,-99.99,,,0.00,Acu-Link.com,2013-05-25 11:31:00,
2013-05-25 07:46:00,50.4,37.5,29.96,West,270,2.7,-999.0,61,-99.99,,,0.00,Acu-Link.com,2013-05-25 11:46:00,
2013-05-25 08:01:00,51.1,37.3,29.98,WNW,292,3.2,-999.0,59,-99.99,,,0.00,Acu-Link.com,2013-05-25 12:01:00,
2013-05-25 08:17:00,51.8,36.6,29.99,NW,315,3.7,-999.0,56,-99.99,,,0.00,Acu-Link.com,2013-05-25 12:17:00,
2013-05-25 08:32:00,52.5,35.9,29.99,WNW,292,2.2,-999.0,53,-99.99,,,0.00,Acu-Link.com,2013-05-25 12:32:00,
2013-05-25 08:47:00,52.7,36.1,30.00,NE,45,2.2,-999.0,53,-99.99,,,0.00,Acu-Link.com,2013-05-25 12:47:00,
2013-05-25 09:02:00,53.2,36.5,30.00,NNW,337,1.7,-999.0,53,-99.99,,,0.00,Acu-Link.com,2013-05-25 13:02:00,
2013-05-25 09:18:00,54.7,33.2,30.00,NE,45,4.2,-999.0,44,-99.99,,,0.00,Acu-Link.com,2013-05-25 13:18:00,
2013-05-25 09:33:00,57.0,32.3,29.99,West,270,2.2,-999.0,39,-99.99,,,0.00,Acu-Link.com,2013-05-25 13:33:00,
2013-05-25 09:48:00,57.6,30.8,29.99,NNE,22,2.2,-999.0,36,-99.99,,,0.00,Acu-Link.com,2013-05-25 13:48:00,
2013-05-25 10:04:00,57.7,30.2,29.99,NW,315,2.2,-999.0,35,-99.99,,,0.00,Acu-Link.com,2013-05-25 14:04:00,
2013-05-25 10:19:00,59.4,29.5,29.99,NNE,22,2.2,-999.0,32,-99.99,,,0.00,Acu-Link.com,2013-05-25 14:19:00,
2013-05-25 10:34:00,60.4,25.4,29.99,ENE,67,2.2,-999.0,26,-99.99,,,0.00,Acu-Link.com,2013-05-25 14:34:00,
2013-05-25 10:49:00,61.5,24.4,29.99,NNW,337,1.7,-999.0,24,-99.99,,,0.00,Acu-Link.com,2013-05-25 14:49:00,
2013-05-25 11:05:00,62.1,23.9,29.98,NW,315,3.2,-999.0,23,-99.99,,,0.00,Acu-Link.com,2013-05-25 15:05:00,
2013-05-25 11:20:00,63.5,24.0,29.99,West,270,1.1,-999.0,22,-99.99,,,0.00,Acu-Link.com,2013-05-25 15:20:00,
2013-05-25 11:35:00,65.1,21.8,29.98,NNW,337,3.2,-999.0,19,-99.99,,,0.00,Acu-Link.com,2013-05-25 15:35:00,
2013-05-25 11:50:00,65.1,27.4,29.99,WSW,247,2.2,-999.0,24,-99.99,,,0.00,Acu-Link.com,2013-05-25 15:50:00,
2013-05-25 12:05:00,66.0,28.2,29.99,WNW,292,2.7,-999.0,24,-99.99,,,0.00,Acu-Link.com,2013-05-25 16:05:00,
2013-05-25 12:20:00,67.6,32.4,29.99,SW,225,1.1,-999.0,27,-99.99,,,0.00,Acu-Link.com,2013-05-25 16:20:00,
2013-05-25 12:35:00,66.7,31.7,29.97,NNW,337,2.7,-999.0,27,-99.99,,,0.00,Acu-Link.com,2013-05-25 16:35:00,
2013-05-25 12:51:00,68.0,32.8,29.96,SW,225,1.7,-999.0,27,-99.99,,,0.00,Acu-Link.com,2013-05-25 16:51:00,
2013-05-25 13:06:00,69.3,41.2,29.95,South,180,2.2,-999.0,36,-99.99,,,0.00,Acu-Link.com,2013-05-25 17:06:00,
2013-05-25 13:21:00,68.4,42.5,29.94,South,180,4.7,-999.0,39,-99.99,,,0.00,Acu-Link.com,2013-05-25 17:21:00,
2013-05-25 13:36:00,68.9,41.5,29.94,SSW,202,2.7,-999.0,37,-99.99,,,0.00,Acu-Link.com,2013-05-25 17:36:00,
2013-05-25 13:51:00,70.0,42.5,29.93,SW,225,2.2,-999.0,37,-99.99,,,0.00,Acu-Link.com,2013-05-25 17:51:00,
2013-05-25 14:06:00,70.2,44.1,29.93,SSW,202,3.7,-999.0,39,-99.99,,,0.00,Acu-Link.com,2013-05-25 18:06:00,
2013-05-25 14:21:00,69.6,41.5,29.93,SSW,202,4.2,-999.0,36,-99.99,,,0.00,Acu-Link.com,2013-05-25 18:21:00,
2013-05-25 14:37:00,69.6,40.7,29.92,SSW,202,3.7,-999.0,35,-99.99,,,0.00,Acu-Link.com,2013-05-25 18:37:00,
2013-05-25 14:52:00,69.4,40.6,29.91,SSW,202,4.2,-999.0,35,-99.99,,,0.00,Acu-Link.com,2013-05-25 18:52:00,
2013-05-25 15:07:00,70.3,40.6,29.91,SSW,202,4.7,-999.0,34,-99.99,,,0.00,Acu-Link.com,2013-05-25 19:07:00,
2013-05-25 15:22:00,70.7,43.1,29.89,SSW,202,3.7,-999.0,37,-99.99,,,0.00,Acu-Link.com,2013-05-25 19:22:00,
2013-05-25 15:38:00,70.2,44.1,29.90,South,180,5.8,-999.0,39,-99.99,,,0.00,Acu-Link.com,2013-05-25 19:38:00,
2013-05-25 15:53:00,70.5,44.3,29.89,SSW,202,3.7,-999.0,39,-99.99,,,0.00,Acu-Link.com,2013-05-25 19:53:00,
2013-05-25 16:08:00,70.2,44.7,29.89,South,180,3.7,-999.0,40,-99.99,,,0.00,Acu-Link.com,2013-05-25 20:08:00,
2013-05-25 16:23:00,70.7,46.5,29.89,West,270,4.7,-999.0,42,-99.99,,,0.00,Acu-Link.com,2013-05-25 20:23:00,
2013-05-25 16:38:00,70.5,46.9,29.89,SW,225,2.7,-999.0,43,-99.99,,,0.00,Acu-Link.com,2013-05-25 20:38:00,
2013-05-25 16:53:00,70.7,44.5,29.88,WSW,247,2.2,-999.0,39,-99.99,,,0.00,Acu-Link.com,2013-05-25 20:53:00,
2013-05-25 17:09:00,71.4,45.8,29.88,SSW,202,4.2,-999.0,40,-99.99,,,0.00,Acu-Link.com,2013-05-25 21:09:00,
2013-05-25 17:24:00,70.5,45.7,29.88,WSW,247,5.8,-999.0,41,-99.99,,,0.00,Acu-Link.com,2013-05-25 21:24:00,
2013-05-25 17:39:00,70.7,47.1,29.88,WSW,247,2.2,-999.0,43,-99.99,,,0.00,Acu-Link.com,2013-05-25 21:39:00,
2013-05-25 17:54:00,70.0,47.7,29.88,South,180,1.7,-999.0,45,-99.99,,,0.00,Acu-Link.com,2013-05-25 21:54:00,
2013-05-25 18:10:00,69.8,50.8,29.89,SSW,202,1.7,-999.0,51,-99.99,,,0.00,Acu-Link.com,2013-05-25 22:10:00,
2013-05-25 18:25:00,70.0,35.4,29.88,ESE,112,1.7,-999.0,28,-99.99,,,0.00,Acu-Link.com,2013-05-25 22:25:00,
2013-05-25 18:40:00,69.6,33.2,29.88,East,90,1.1,-999.0,26,-99.99,,,0.00,Acu-Link.com,2013-05-25 22:40:00,
2013-05-25 18:55:00,68.7,34.3,29.88,ESE,112,0.0,-999.0,28,-99.99,,,0.00,Acu-Link.com,2013-05-25 22:55:00,
2013-05-25 19:11:00,68.4,33.1,29.89,SSW,202,0.0,-999.0,27,-99.99,,,0.00,Acu-Link.com,2013-05-25 23:11:00,
2013-05-25 19:26:00,67.8,27.6,29.89,SW,225,1.7,-999.0,22,-99.99,,,0.00,Acu-Link.com,2013-05-25 23:26:00,
2013-05-25 19:41:00,66.9,27.9,29.89,WSW,247,2.2,-999.0,23,-99.99,,,0.00,Acu-Link.com,2013-05-25 23:41:00,
2013-05-25 19:57:00,66.4,30.5,29.89,WSW,247,1.7,-999.0,26,-99.99,,,0.00,Acu-Link.com,2013-05-25 23:57:00,
2013-05-25 20:12:00,65.7,30.8,29.90,ESE,112,2.2,-999.0,27,-99.99,,,0.00,Acu-Link.com,2013-05-26 00:12:00,
2013-05-25 20:27:00,64.8,32.6,29.89,NE,45,0.0,-999.0,30,-99.99,,,0.00,Acu-Link.com,2013-05-26 00:27:00,
2013-05-25 20:42:00,63.7,32.5,29.90,NNE,22,0.0,-999.0,31,-99.99,,,0.00,Acu-Link.com,2013-05-26 00:42:00,
2013-05-25 20:58:00,63.3,34.5,29.89,NE,45,0.0,-999.0,34,-99.99,,,0.00,Acu-Link.com,2013-05-26 00:58:00,
2013-05-25 21:13:00,62.6,34.6,29.89,ESE,112,0.0,-999.0,35,-99.99,,,0.00,Acu-Link.com,2013-05-26 01:13:00,
2013-05-25 21:28:00,61.5,36.3,29.90,SSW,202,0.0,-999.0,39,-99.99,,,0.00,Acu-Link.com,2013-05-26 01:28:00,
2013-05-25 21:43:00,60.3,36.5,29.90,SSW,202,0.0,-999.0,41,-99.99,,,0.00,Acu-Link.com,2013-05-26 01:43:00,
2013-05-25 21:59:00,59.9,36.8,29.90,SSW,202,0.0,-999.0,42,-99.99,,,0.00,Acu-Link.com,2013-05-26 01:59:00,
2013-05-25 22:14:00,59.7,36.0,29.90,South,180,0.0,-999.0,41,-99.99,,,0.00,Acu-Link.com,2013-05-26 02:14:00,
2013-05-25 22:29:00,58.8,38.6,29.90,SSW,202,0.0,-999.0,47,-99.99,,,0.00,Acu-Link.com,2013-05-26 02:29:00,
2013-05-25 22:45:00,57.9,38.9,29.89,ENE,67,0.0,-999.0,49,-99.99,,,0.00,Acu-Link.com,2013-05-26 02:45:00,
2013-05-25 23:00:00,57.2,38.7,29.89,SSW,202,0.0,-999.0,50,-99.99,,,0.00,Acu-Link.com,2013-05-26 03:00:00,
2013-05-25 23:15:00,56.1,41.5,29.88,ENE,67,0.0,-999.0,58,-99.99,,,0.00,Acu-Link.com,2013-05-26 03:15:00,
2013-05-25 23:30:00,55.4,41.3,29.88,SSW,202,2.2,-999.0,59,-99.99,,,0.00,Acu-Link.com,2013-05-26 03:30:00,
2013-05-25 23:46:00,54.3,38.9,29.90,NE,45,0.0,-999.0,56,-99.99,,,0.00,Acu-Link.com,2013-05-26 03:46:00,